Location: Bacea
(45.9500°N, 22.6667°E)
Time: 11:50:35
(UTC+00:00)

Cosmos 489 Rocket - Pass Details

Date: 30 May 2022
Orbit: 952 x 983 km, 74.0° (Epoch: 03 July)

Event Time Altitude Azimuth Distance (km) Brightness Sun altitude
Rises 01:30:33 0° 338° (NNW) 3,646 7.9 -10.5°
Reaches altitude 10° 01:33:05 10° 339° (NNW) 2,700 7.2 -10.2°
Maximum altitude 01:39:21 84° 69° (ENE) 974 4.6 -9.5°
Drops below altitude 10° 01:45:37 10° 158° (SSE) 2,703 6.6 -8.7°
Sets 01:48:09 0° 159° (SSE) 3,650 7.3 -8.4°
